Lid_Strength_Index
4 4 4 4 4 4 4 4 4 4 4 4 3 3 3 3 3 4 8 6 4 -2 -1 1 1 2 2 4 4 4 10 11 10 10 9 6 8 5 4 6 5 4 5 3 2
4 4 4 4 4 4 4 4 4 4 4 4 4 4 3 3 5 7 3 -0 -2 -1 1 3 4 3 5 6 5 7 10 10 7 7 8 7 7 6 7 7 6 6 3 3 2
4 4 4 4 4 4 4 4 4 4 4 4 4 4 4 4 8 8 -1 -1 -2 -1 1 1 2 4 7 6 7 7 10 7 7 6 6 7 7 5 7 8 6 7 5 4 3
4 4 4 4 4 4 4 4 4 4 4 4 4 4 4 5 11 5 -1 -2 -1 -0 1 3 4 6 8 9 6 9 7 7 6 5 6 7 6 7 6 6 4 4 4 4 4
4 4 4 4 4 4 4 4 4 4 4 4 4 4 5 8 10 0 -2 -1 -0 1 3 4 6 6 8 7 7 8 7 6 5 5 5 5 7 7 6 4 3 4 4 4 4
5 4 4 4 4 4 4 4 4 5 4 4 4 4 7 13 7 6 -0 0 1 2 3 3 5 4 6 6 7 6 6 6 5 5 5 7 7 6 6 4 5 4 4 4 4
5 5 5 5 5 4 5 5 5 5 4 4 4 5 7 10 7 3 -0 1 1 1 4 2 3 4 5 7 6 6 9 8 7 6 6 6 9 8 5 5 5 5 5 4 4
5 5 5 5 5 5 5 6 5 3 3 4 3 5 10 7 5 7 1 1 1 1 1 1 2 4 6 7 8 8 10 11 9 6 6 6 10 7 5 6 6 6 5 5 4
5 5 5 6 6 6 6 6 5 3 3 3 6 7 10 4 7 6 4 3 2 1 3 2 3 5 5 7 10 9 11 11 10 6 7 7 9 6 5 6 6 6 5 5 4
5 5 6 6 6 7 7 7 5 3 4 4 5 9 8 8 6 6 6 3 4 4 5 5 6 7 7 9 13 11 12 11 11 8 7 8 8 6 6 6 6 6 5 5 5
5 5 5 6 7 7 8 9 10 10 11 7 7 9 7 6 4 6 7 6 6 6 9 7 9 10 9 8 9 10 11 11 9 8 8 8 8 7 6 6 7 6 6 5 5
5 5 5 6 7 7 9 11 12 12 14 10 11 10 7 7 9 7 7 9 9 10 8 9 10 8 7 8 9 10 10 11 10 9 10 9 8 6 6 7 6 6 6 5 4
5 5 5 6 6 9 10 11 9 10 14 12 11 10 10 9 9 8 8 8 10 11 10 11 9 8 8 9 9 9 11 10 10 10 9 9 9 8 7 6 6 5 5 5 5
5 5 5 6 9 9 11 9 9 9 15 12 12 10 10 9 10 7 7 8 9 11 10 10 8 9 9 10 9 10 8 10 10 10 12 8 12 9 8 8 7 6 6 5 5
5 6 6 7 9 10 9 8 8 10 18 11 12 8 9 9 10 9 7 8 10 10 10 11 10 9 10 9 8 9 8 8 9 10 10 10 11 9 9 10 8 7 6 5 4
5 6 6 8 9 8 8 8 9 14 18 11 11 12 11 10 11 9 9 7 7 9 9 9 8 8 8 8 7 7 8 8 8 9 13 10 11 10 9 9 8 6 6 5 4
5 6 7 7 10 8 8 10 14 17 11 13 12 11 11 12 12 10 11 10 11 12 12 10 10 8 8 9 8 8 9 12 13 13 14 9 11 10 7 6 6 6 6 5 4
5 6 7 7 7 8 9 13 17 15 14 11 12 11 12 11 12 11 11 12 9 10 11 13 14 10 9 9 10 9 10 13 15 15 13 9 12 9 6 6 5 5 5 4 4
4 5 7 6 7 7 10 17 15 14 13 14 12 13 13 12 12 12 11 11 10 9 11 12 12 10 9 8 8 10 11 8 11 12 13 11 9 7 6 6 5 5 5 5 5
3 5 5 3 5 6 11 15 13 11 12 13 15 13 15 13 12 12 12 12 11 10 10 10 13 10 9 8 8 10 8 12 11 15 15 13 12 10 8 7 6 6 5 5 4
4 6 3 2 2 5 11 11 11 9 10 12 14 14 14 14 12 13 13 12 11 11 9 10 11 12 10 11 11 11 11 11 10 11 14 15 13 7 7 6 6 6 5 4 4
5 8 2 2 7 7 9 9 8 8 9 10 11 12 13 13 13 13 13 12 11 9 11 11 12 12 11 9 8 9 10 10 12 13 12 12 12 7 6 5 5 5 4 4 3
7 7 2 2 10 10 8 8 7 8 9 10 11 11 11 12 13 12 12 10 11 10 11 11 12 13 12 10 10 10 9 9 10 10 12 14 13 6 6 6 5 5 4 4 4
5 9 5 4 5 8 9 9 9 6 8 8 9 10 11 12 10 13 13 11 11 10 9 10 12 12 13 12 12 12 11 10 10 12 12 12 11 9 7 6 5 4 4 5 4
5 7 6 9 8 8 8 8 10 10 7 7 10 10 12 13 11 12 12 12 11 10 10 11 14 13 13 13 13 13 12 12 12 10 11 11 10 9 7 6 5 4 4 4 4
6 7 6 8 7 8 8 9 10 9 8 9 11 10 10 12 11 12 11 12 13 11 12 11 14 13 14 13 13 13 12 12 12 11 11 11 11 7 6 5 5 4 4 4 4
3 3 6 7 8 9 9 9 9 7 7 7 8 10 10 9 8 8 9 9 11 12 13 13 13 14 16 13 13 14 12 12 11 10 10 12 9 7 7 6 5 5 4 4 4